Weather in Sagopshi

Russia / Republic of Ingushetia     43°29′16″N   44°35′22″E
temp.,
°C
wind,
m/s
gust,
m/s
humid.,
%
clouds,
%
prec.,
mm/h
press.,
hPa
HPBL,
m
12 may, wed
wed1200:00+6se22820 0.0 101621
03:00+6wsw11870 0.0 101612
06:00+7wsw12850 0.0 101786
09:00+12n22670 0.0 1016658
12:00+16ne32594 0.0 10161064
15:00+18ne325510 0.0 10151243
18:00+17ene23670 0.0 1015127
21:00+13se22771 0.0 101512
13 may, thu
thu1300:00+13ese227554 0.0 101321
03:00+11se22830 0.0 101319
06:00+13se11780 0.0 101442
09:00+18ene33620 0.0 1013525
12:00+22ene43540 0.0 1013834
15:00+24ene44520 0.0 1013970
18:00+21ene35690 0.0 1014139
21:00+17se227299 0.0 101412
14 may, fri
fri1400:00+16sse11772 0.0 101411
03:00+15s11815 0.0 101311
06:00+16ssw01795 0.0 101425
09:00+22n116129 0.0 1013415
12:00+25ene445588 0.0 1012789
15:00+27ene33500 0.0 1012996
18:00+24ene22654 0.0 101142
21:00+20ese11710 0.0 101211
15 may, sat
sat1500:00+18ssw11790 0.0 101111
03:00+17ssw11822 0.0 101111
06:00+18s11730 0.0 101227
09:00+24nnw21590 0.0 1012457
12:00+27nne21523 0.0 10121072
15:00+28ne32514 0.0 10111524
18:00+25ne2265100 0.1 101134
21:00+20wsw1178100 1.1 101211
16 may, sun
sun1600:00+19ssw1183100 0.1 101111
03:00+17s1187100 0.1 101011
06:00+19ese1183100 0.0 101040
09:00+23ene346794 0.0 1009576
12:00+26ene555565 0.0 1007986
15:00+27e45443 0.0 10051080
18:00+23ene36600 0.0 1003192
21:00+18ese32590 0.0 100423